Weather observations for the past three days for
Searcy Municipal Airport
Imperial (Metric)
Date Time (cdt) Wind (mph) Vis. (mi.) Weather Sky Cond. Temperature (ºF) Relative Humidity Wind Chill (°F) Heat Index (°F) Pressure Precipitation (in)
Air Dwpt 6 hour altimeter (in) sea level (mb) 1 hr 3 hr 6 hr
Max. Min.
15 02:56 SW 5 10.00 Fair CLR 75.9 75 97% 75 30 1015.5
15 01:56 SW 3 10.00 Fair CLR 75.9 75 97% 75 30.02 1016.2
15 00:56 Calm 10.00 Fair CLR 77 75 89.1 75.9 94% 78 30.03 1016.5
14 23:56 Calm 10.00 Fair CLR 77 75 94% 78 30.03 1016.5
14 22:56 S 3 10.00 Fair CLR 77 75 94% 78 30.03 1016.4
14 21:56 Calm 10.00 Fair CLR 80.1 75 85% 85 30.03 1016.5
14 20:56 S 3 10.00 Fair CLR 81 75.9 85% 87 30.02 1016.2
14 19:56 S 3 10.00 Fair CLR 84.9 75.9 75% 94 30.02 1016.0
14 18:56 S 6 10.00 Fair CLR 89.1 77 93.9 89.1 68% 102 30.02 1016.3
14 17:56 S 9 10.00 Fair CLR 91.9 77 62% 106 30.03 1016.6
14 16:56 S 7 10.00 Fair CLR 93.9 73.9 52% 104 30.04 1016.8
14 15:56 Vrbl 5 10.00 Fair CLR 93 73.9 54% 103 30.04 1016.9
14 14:56 SW 7 10.00 Mostly Cloudy BKN048 93 72 50% 101 30.07 1017.8
14 13:56 Vrbl 3 10.00 A Few Clouds FEW045 91.9 72 52% 100 30.09 1018.4
14 12:56 Vrbl 6 10.00 Partly Cloudy SCT037 91 75 91 75 59% 102 30.11 1019.3
14 11:56 S 8 10.00 Partly Cloudy SCT034 90 75 62% 100 30.13 1020.0
14 10:56 Vrbl 7 10.00 Fair CLR 88 75.9 68% 99 30.14 1020.3
14 09:56 Vrbl 3 10.00 Fair CLR 86 75.9 72% 96 30.14 1020.3
14 08:56 Vrbl 5 10.00 Fair CLR 82.9 77 82% 92 30.15 1020.5
14 07:56 SW 3 10.00 Fair CLR 78.1 75 90% 81 30.14 1020.3
14 06:56 Calm 5.00 Fog/Mist CLR 75 73.9 75 72 96% 73 30.14 1020.1
14 05:56 Calm 2.00 Fog/Mist SCT049 73 73 100% 30.13 1019.8
14 04:56 S 3 5.00 Fog/Mist SCT047 73 73 100% 30.12 1019.6
14 03:56 Calm 4.00 Fog/Mist CLR 73 73 100% 30.11 1019.2
14 02:56 Calm 7.00 Fair CLR 73.9 73 97% 30.11 1019.1
14 01:56 Calm 8.00 Fair CLR 73.9 73 97% 30.12 1019.5
14 00:56 Calm 8.00 Fair CLR 75 73.9 90 75 96% 73 30.14 1020.1
13 23:56 Calm 10.00 Fair CLR 75.9 73.9 94% 75 30.15 1020.5
13 22:56 Calm 10.00 Fair CLR 75.9 75 97% 75 30.14 1020.2
13 21:56 Calm 10.00 Fair CLR 78.1 75 90% 81 30.14 1020.2
13 20:56 Calm 10.00 Fair CLR 80.1 75 85% 85 30.13 1019.8
13 19:56 Calm 10.00 Fair CLR 84.9 75 72% 93 30.12 1019.7
13 18:56 S 5 10.00 Fair CLR 90 75 95 90 62% 100 30.11 1019.4
13 17:56 SE 8 10.00 Fair CLR 91.9 73.9 56% 102 30.11 1019.4
13 16:56 S 7 10.00 Fair CLR 93.9 75 54% 106 30.13 1019.9
13 15:56 S 5 10.00 Partly Cloudy SCT046 91.9 73.9 56% 102 30.15 1020.6
13 14:56 S 5 10.00 Fair CLR 93.9 73.9 52% 104 30.16 1021.0
13 13:56 SW 3 10.00 Fair CLR 93 72 50% 101 30.19 1021.9
13 12:56 S 8 10.00 A Few Clouds FEW046 91.9 73 93 72 54% 101 30.2 1022.4
13 11:56 Vrbl 3 10.00 Fair CLR 91 73 56% 100 30.2 1022.4
13 10:56 SW 5 10.00 Fair CLR 90 73.9 59% 99 30.2 1022.5
13 09:56 SW 5 10.00 Fair CLR 86 73.9 67% 94 30.2 1022.2
13 08:56 Vrbl 3 10.00 Fair CLR 82 73.9 77% 88 30.2 1022.4
13 07:56 Calm 10.00 Fair CLR 78.1 75 90% 81 30.19 1021.9
13 06:56 Calm 8.00 Fair CLR 72 72 73 71.1 100% 30.18 1021.7
13 05:56 Calm 2.50 Fog/Mist CLR 71.1 71.1 100% 30.16 1021.1
13 04:56 Calm 2.50 Fog/Mist CLR 72 71.1 97% 30.14 1020.3
13 03:56 Calm 5.00 Fog/Mist FEW110 72 72 100% 30.13 1019.9
13 02:56 Calm 5.00 Fog/Mist FEW110 72 72 100% 30.13 1019.9
13 01:56 Calm 6.00 Fog/Mist CLR 73 73 100% 30.13 1020.1
13 00:56 Calm 5.00 Fog/Mist CLR 73.9 73 88 73.9 97% 30.13 1020.1
12 23:56 Calm 9.00 Fair CLR 73.9 73.9 100% 30.13 1020.0
12 22:56 Calm 10.00 Fair CLR 75.9 73.9 94% 75 30.12 1019.5
12 21:56 Calm 10.00 Fair CLR 77 73.9 90% 78 30.11 1019.1
12 20:56 Calm 10.00 Fair CLR 78.1 73 85% 81 30.09 1018.7
12 19:56 Calm 9.00 Fair CLR 84 73.9 72% 91 30.09 1018.6
12 18:56 S 5 10.00 Fair CLR 88 75 93.9 88 66% 98 30.08 1018.5
12 17:56 S 6 10.00 Fair CLR 91 73.9 57% 101 30.08 1018.2
12 16:56 S 6 10.00 Fair CLR 91.9 73 54% 101 30.09 1018.5
12 15:56 Calm 10.00 Fair CLR 91 70 50% 97 30.1 1019.0
12 14:56 Calm 10.00 A Few Clouds FEW043 93 72 50% 101 30.11 1019.2
12 13:56 Vrbl 5 10.00 Mostly Cloudy BKN043 91 70 50% 97 30.12 1019.5
12 12:56 Calm 10.00 Fair CLR 91 73 91 72 56% 100 30.13 1020.0
12 11:56 S 5 10.00 Fair CLR 89.1 72 57% 96 30.14 1020.3
12 10:56 Vrbl 3 10.00 Fair CLR 88 73 61% 96 30.13 1019.9
12 09:56 Vrbl 3 10.00 Fair CLR 84 72 67% 90 30.14 1020.1
12 08:56 Calm 10.00 Partly Cloudy SCT120 80.1 73 79% 84 30.14 1020.3
12 07:56 Calm 10.00 Fair CLR 78.1 73 85% 81 30.12 1019.4
12 06:56 Calm 8.00 A Few Clouds FEW002 72 71.1 73.9 70 97% 30.1 1019.1
12 05:56 Calm 5.00 Fog/Mist CLR 70 70 100% 30.09 1018.6
12 04:56 Calm 5.00 Fog/Mist CLR 71.1 71.1 100% 30.07 1017.9
12 03:56 Calm 4.00 Fog/Mist CLR 72 71.1 97% 30.04 1017.0
Date Time (cdt) Wind (mph) Vis. (mi.) Weather Sky Cond. Air Dwpt Max. Min. Relative Humidity Wind Chill (°F) Heat Index (°F) altimeter (in) sea level (mb) 1 hr 3 hr 6 hr
6 hour
Temperature (ºF) Pressure Precipitation (in)